Year,Month,Day,Hour,Minute,Value (Times are PST for temperature in C)
2008,10,22,00,00,7.20
2008,10,22,00,01,7.20
2008,10,22,00,02,7.20
2008,10,22,00,03,7.20
2008,10,22,00,04,7.20
2008,10,22,00,05,7.20
2008,10,22,00,06,7.20
2008,10,22,00,07,7.20
2008,10,22,00,08,7.20
2008,10,22,00,09,7.30
2008,10,22,00,10,7.30
2008,10,22,00,11,7.30
2008,10,22,00,12,7.30
2008,10,22,00,13,7.30
2008,10,22,00,14,7.30
2008,10,22,00,15,7.40
2008,10,22,00,16,7.40
2008,10,22,00,17,7.40
2008,10,22,00,18,7.40
2008,10,22,00,19,7.40
2008,10,22,00,20,7.40
2008,10,22,00,21,7.40
2008,10,22,00,22,7.40
2008,10,22,00,23,7.40
2008,10,22,00,24,7.40
2008,10,22,00,25,7.40
2008,10,22,00,26,7.40
2008,10,22,00,27,7.40
2008,10,22,00,28,7.40
2008,10,22,00,29,7.40
2008,10,22,00,30,7.40
2008,10,22,00,31,7.40
2008,10,22,00,32,7.40
2008,10,22,00,33,7.40
2008,10,22,00,34,7.40
2008,10,22,00,35,7.40
2008,10,22,00,36,7.40
2008,10,22,00,37,7.40
2008,10,22,00,38,7.40
2008,10,22,00,39,7.40
2008,10,22,00,40,7.40
2008,10,22,00,41,7.40
2008,10,22,00,42,7.40
2008,10,22,00,43,7.40
2008,10,22,00,44,7.40
2008,10,22,00,45,7.40
2008,10,22,00,46,7.30
2008,10,22,00,47,7.30
2008,10,22,00,48,7.30
2008,10,22,00,49,7.30
2008,10,22,00,50,7.30
2008,10,22,00,51,7.30
2008,10,22,00,52,7.30
2008,10,22,00,53,7.30
2008,10,22,00,54,7.30
2008,10,22,00,55,7.30
2008,10,22,00,56,7.30
2008,10,22,00,57,7.30
2008,10,22,00,58,7.30
2008,10,22,00,59,7.30
2008,10,22,01,00,7.30
2008,10,22,01,01,7.30
2008,10,22,01,02,7.20
2008,10,22,01,03,7.20
2008,10,22,01,04,7.20
2008,10,22,01,05,7.20
2008,10,22,01,06,7.20
2008,10,22,01,07,7.20
2008,10,22,01,08,7.20
2008,10,22,01,09,7.20
2008,10,22,01,10,7.20
2008,10,22,01,11,7.20
2008,10,22,01,12,7.20
2008,10,22,01,13,7.20
2008,10,22,01,14,7.20
2008,10,22,01,15,7.20
2008,10,22,01,16,7.20
2008,10,22,01,17,7.20
2008,10,22,01,18,7.20
2008,10,22,01,19,7.20
2008,10,22,01,20,7.20
2008,10,22,01,21,7.20
2008,10,22,01,22,7.20
2008,10,22,01,23,7.20
2008,10,22,01,24,7.20
2008,10,22,01,25,7.20
2008,10,22,01,26,7.20
2008,10,22,01,27,7.20
2008,10,22,01,28,7.10
2008,10,22,01,29,7.10
2008,10,22,01,30,7.10
2008,10,22,01,31,7.10
2008,10,22,01,32,7.10
2008,10,22,01,33,7.10
2008,10,22,01,34,7.10
2008,10,22,01,35,7.20
2008,10,22,01,36,7.20
2008,10,22,01,37,7.20
2008,10,22,01,38,7.20
2008,10,22,01,39,7.20
2008,10,22,01,40,7.20
2008,10,22,01,41,7.20
2008,10,22,01,42,7.20
2008,10,22,01,43,7.20
2008,10,22,01,44,7.20
2008,10,22,01,45,7.20
2008,10,22,01,46,7.20
2008,10,22,01,47,7.20
2008,10,22,01,48,7.20
2008,10,22,01,49,7.20
2008,10,22,01,50,7.20
2008,10,22,01,51,7.20
2008,10,22,01,52,7.20
2008,10,22,01,53,7.20
2008,10,22,01,54,7.20
2008,10,22,01,55,7.20
2008,10,22,01,56,7.20
2008,10,22,01,57,7.20
2008,10,22,01,58,7.20
2008,10,22,01,59,7.20
2008,10,22,02,00,7.20
2008,10,22,02,01,7.20
2008,10,22,02,02,7.20
2008,10,22,02,03,7.20
2008,10,22,02,04,7.20
2008,10,22,02,05,7.20
2008,10,22,02,06,7.20
2008,10,22,02,07,7.20
2008,10,22,02,08,7.20
2008,10,22,02,09,7.20
2008,10,22,02,10,7.20
2008,10,22,02,11,7.20
2008,10,22,02,12,7.20
2008,10,22,02,13,7.20
2008,10,22,02,14,7.20
2008,10,22,02,15,7.20
2008,10,22,02,16,7.20
2008,10,22,02,17,7.20
2008,10,22,02,18,7.20
2008,10,22,02,19,7.20
2008,10,22,02,20,7.20
2008,10,22,02,21,7.20
2008,10,22,02,22,7.20
2008,10,22,02,23,7.20
2008,10,22,02,24,7.20
2008,10,22,02,25,7.20
2008,10,22,02,26,7.20
2008,10,22,02,27,7.30
2008,10,22,02,28,7.30
2008,10,22,02,29,7.30
2008,10,22,02,30,7.30
2008,10,22,02,31,7.30
2008,10,22,02,32,7.30
2008,10,22,02,33,7.30
2008,10,22,02,34,7.30
2008,10,22,02,35,7.30
2008,10,22,02,36,7.30
2008,10,22,02,37,7.30
2008,10,22,02,38,7.30
2008,10,22,02,39,7.30
2008,10,22,02,40,7.30
2008,10,22,02,41,7.30
2008,10,22,02,42,7.30
2008,10,22,02,43,7.30
2008,10,22,02,44,7.30
2008,10,22,02,45,7.30
2008,10,22,02,46,7.30
2008,10,22,02,47,7.30
2008,10,22,02,48,7.30
2008,10,22,02,49,7.30
2008,10,22,02,50,7.30
2008,10,22,02,51,7.30
2008,10,22,02,52,7.30
2008,10,22,02,53,7.30
2008,10,22,02,54,7.30
2008,10,22,02,55,7.30
2008,10,22,02,56,7.30
2008,10,22,02,57,7.30
2008,10,22,02,58,7.40
2008,10,22,02,59,7.30
2008,10,22,03,00,7.30
2008,10,22,03,01,7.30
2008,10,22,03,02,7.30
2008,10,22,03,03,7.30
2008,10,22,03,04,7.30
2008,10,22,03,05,7.30
2008,10,22,03,06,7.40
2008,10,22,03,07,7.40
2008,10,22,03,08,7.40
2008,10,22,03,09,7.40
2008,10,22,03,10,7.40
2008,10,22,03,11,7.40
2008,10,22,03,12,7.40
2008,10,22,03,13,7.40
2008,10,22,03,14,7.50
2008,10,22,03,15,7.50
2008,10,22,03,16,7.50
2008,10,22,03,17,7.50
2008,10,22,03,18,7.50
2008,10,22,03,19,7.60
2008,10,22,03,20,7.60
2008,10,22,03,21,7.60
2008,10,22,03,22,7.60
2008,10,22,03,23,7.60
2008,10,22,03,24,7.60
2008,10,22,03,25,7.60
2008,10,22,03,26,7.60
2008,10,22,03,27,7.60
2008,10,22,03,28,7.60
2008,10,22,03,29,7.60
2008,10,22,03,30,7.60
2008,10,22,03,31,7.60
2008,10,22,03,32,7.60
2008,10,22,03,33,7.60
2008,10,22,03,34,7.60
2008,10,22,03,35,7.60
2008,10,22,03,36,7.60
2008,10,22,03,37,7.60
2008,10,22,03,38,7.50
2008,10,22,03,39,7.60
2008,10,22,03,40,7.50
2008,10,22,03,41,7.50
2008,10,22,03,42,7.50
2008,10,22,03,43,7.50
2008,10,22,03,44,7.50
2008,10,22,03,45,7.50
2008,10,22,03,46,7.50
2008,10,22,03,47,7.50
2008,10,22,03,48,7.50
2008,10,22,03,49,7.50
2008,10,22,03,50,7.50
2008,10,22,03,51,7.50
2008,10,22,03,52,7.50
2008,10,22,03,53,7.60
2008,10,22,03,54,7.60
2008,10,22,03,55,7.50
2008,10,22,03,56,7.60
2008,10,22,03,57,7.50
2008,10,22,03,58,7.50
2008,10,22,03,59,7.50
2008,10,22,04,00,7.50
2008,10,22,04,01,7.50
2008,10,22,04,02,7.50
2008,10,22,04,03,7.40
2008,10,22,04,04,7.40
2008,10,22,04,05,7.40
2008,10,22,04,06,7.40
2008,10,22,04,07,7.40
2008,10,22,04,08,7.40
2008,10,22,04,09,7.40
2008,10,22,04,10,7.40
2008,10,22,04,11,7.40
2008,10,22,04,12,7.40
2008,10,22,04,13,7.40
2008,10,22,04,14,7.40
2008,10,22,04,15,7.40
2008,10,22,04,16,7.40
2008,10,22,04,17,7.40
2008,10,22,04,18,7.40
2008,10,22,04,19,7.40
2008,10,22,04,20,7.40
2008,10,22,04,21,7.40
2008,10,22,04,22,7.40
2008,10,22,04,23,7.40
2008,10,22,04,24,7.40
2008,10,22,04,25,7.40
2008,10,22,04,26,7.40
2008,10,22,04,27,7.40
2008,10,22,04,28,7.40
2008,10,22,04,29,7.40
2008,10,22,04,30,7.40
2008,10,22,04,31,7.40
2008,10,22,04,32,7.40
2008,10,22,04,33,7.40
2008,10,22,04,34,7.40
2008,10,22,04,35,7.40
2008,10,22,04,36,7.40
2008,10,22,04,37,7.40
2008,10,22,04,38,7.40
2008,10,22,04,39,7.40
2008,10,22,04,40,7.40
2008,10,22,04,41,7.40
2008,10,22,04,42,7.40
2008,10,22,04,43,7.40
2008,10,22,04,44,7.40
2008,10,22,04,45,7.40
2008,10,22,04,46,7.40
2008,10,22,04,47,7.40
2008,10,22,04,48,7.40
2008,10,22,04,49,7.40
2008,10,22,04,50,7.40
2008,10,22,04,51,7.40
2008,10,22,04,52,7.40
2008,10,22,04,53,7.40
2008,10,22,04,54,7.40
2008,10,22,04,55,7.40
2008,10,22,04,56,7.40
2008,10,22,04,57,7.40
2008,10,22,04,58,7.40
2008,10,22,04,59,7.40
2008,10,22,05,00,7.40
2008,10,22,05,01,7.40
2008,10,22,05,02,7.40
2008,10,22,05,03,7.40
2008,10,22,05,04,7.40
2008,10,22,05,05,7.40
2008,10,22,05,06,7.40
2008,10,22,05,07,7.40
2008,10,22,05,08,7.40
2008,10,22,05,09,7.40
2008,10,22,05,10,7.40
2008,10,22,05,11,7.40
2008,10,22,05,12,7.40
2008,10,22,05,13,7.40
2008,10,22,05,14,7.40
2008,10,22,05,15,7.40
2008,10,22,05,16,7.40
2008,10,22,05,17,7.40
2008,10,22,05,18,7.40
2008,10,22,05,19,7.30
2008,10,22,05,20,7.30
2008,10,22,05,21,7.30
2008,10,22,05,22,7.30
2008,10,22,05,23,7.30
2008,10,22,05,24,7.30
2008,10,22,05,25,7.30
2008,10,22,05,26,7.30
2008,10,22,05,27,7.20
2008,10,22,05,28,7.20
2008,10,22,05,29,7.20
2008,10,22,05,30,7.20
2008,10,22,05,31,7.20
2008,10,22,05,32,7.10
2008,10,22,05,33,7.10
2008,10,22,05,34,7.10
2008,10,22,05,35,7.00
2008,10,22,05,36,7.00
2008,10,22,05,37,6.90
2008,10,22,05,38,6.90
2008,10,22,05,39,6.90
2008,10,22,05,40,6.80
2008,10,22,05,41,6.80
2008,10,22,05,42,6.80
2008,10,22,05,43,6.70
2008,10,22,05,44,6.70
2008,10,22,05,45,6.60
2008,10,22,05,46,6.60
2008,10,22,05,47,6.60
2008,10,22,05,48,6.60
2008,10,22,05,49,6.60
2008,10,22,05,50,6.50
2008,10,22,05,51,6.50
2008,10,22,05,52,6.40
2008,10,22,05,53,6.40
2008,10,22,05,54,6.40
2008,10,22,05,55,6.40
2008,10,22,05,56,6.40
2008,10,22,05,57,6.30
2008,10,22,05,58,6.30
2008,10,22,05,59,6.30
2008,10,22,06,00,6.30
2008,10,22,06,01,6.20
2008,10,22,06,02,6.20
2008,10,22,06,03,6.10
2008,10,22,06,04,6.10
2008,10,22,06,05,6.10
2008,10,22,06,06,6.00
2008,10,22,06,07,6.00
2008,10,22,06,08,5.90
2008,10,22,06,09,5.90
2008,10,22,06,10,5.90
2008,10,22,06,11,5.80
2008,10,22,06,12,5.80
2008,10,22,06,13,5.80
2008,10,22,06,14,5.80
2008,10,22,06,15,5.70
2008,10,22,06,16,5.70
2008,10,22,06,17,5.70
2008,10,22,06,18,5.70
2008,10,22,06,19,5.60
2008,10,22,06,20,5.60
2008,10,22,06,21,5.60
2008,10,22,06,22,5.50
2008,10,22,06,23,5.50
2008,10,22,06,24,5.50
2008,10,22,06,25,5.50
2008,10,22,06,26,5.40
2008,10,22,06,27,5.40
2008,10,22,06,28,5.40
2008,10,22,06,29,5.30
2008,10,22,06,30,5.30
2008,10,22,06,31,5.30
2008,10,22,06,32,5.30
2008,10,22,06,33,5.30
2008,10,22,06,34,5.20
2008,10,22,06,35,5.20
2008,10,22,06,36,5.20
2008,10,22,06,37,5.10
2008,10,22,06,38,5.10
2008,10,22,06,39,5.10
2008,10,22,06,40,5.10
2008,10,22,06,41,5.10
2008,10,22,06,42,5.00
2008,10,22,06,43,5.00
2008,10,22,06,44,4.90
2008,10,22,06,45,4.90
2008,10,22,06,46,4.90
2008,10,22,06,47,4.90
2008,10,22,06,48,4.80
2008,10,22,06,49,4.80
2008,10,22,06,50,4.80
2008,10,22,06,51,4.80
2008,10,22,06,52,4.70
2008,10,22,06,53,4.70
2008,10,22,06,54,4.70
2008,10,22,06,55,4.60
2008,10,22,06,56,4.60
2008,10,22,06,57,4.60
2008,10,22,06,58,4.50
2008,10,22,06,59,4.50
2008,10,22,07,00,4.50
2008,10,22,07,01,4.50
2008,10,22,07,02,4.40
2008,10,22,07,03,4.40
2008,10,22,07,04,4.40
2008,10,22,07,05,4.30
2008,10,22,07,06,4.30
2008,10,22,07,07,4.30
2008,10,22,07,08,4.30
2008,10,22,07,09,4.30
2008,10,22,07,10,4.30
2008,10,22,07,11,4.20
2008,10,22,07,12,4.20
2008,10,22,07,13,4.20
2008,10,22,07,14,4.20
2008,10,22,07,15,4.10
2008,10,22,07,16,4.10
2008,10,22,07,17,4.10
2008,10,22,07,18,4.10
2008,10,22,07,19,4.10
2008,10,22,07,20,4.10
2008,10,22,07,21,4.10
2008,10,22,07,22,4.10
2008,10,22,07,23,4.10
2008,10,22,07,24,4.00
2008,10,22,07,25,4.00
2008,10,22,07,26,4.00
2008,10,22,07,27,4.00
2008,10,22,07,28,3.90
2008,10,22,07,29,3.90
2008,10,22,07,30,3.90
2008,10,22,07,31,3.90
2008,10,22,07,32,3.90
2008,10,22,07,33,3.80
2008,10,22,07,34,3.80
2008,10,22,07,35,3.80
2008,10,22,07,36,3.80
2008,10,22,07,37,3.80
2008,10,22,07,38,3.80
2008,10,22,07,39,3.80
2008,10,22,07,40,3.70
2008,10,22,07,41,3.70
2008,10,22,07,42,3.70
2008,10,22,07,43,3.70
2008,10,22,07,44,3.70
2008,10,22,07,45,3.60
2008,10,22,07,46,3.60
2008,10,22,07,47,3.60
2008,10,22,07,48,3.60
2008,10,22,07,49,3.50
2008,10,22,07,50,3.50
2008,10,22,07,51,3.50
2008,10,22,07,52,3.50
2008,10,22,07,53,3.50
2008,10,22,07,54,3.50
2008,10,22,07,55,3.40
2008,10,22,07,56,3.40
2008,10,22,07,57,3.40
2008,10,22,07,58,3.40
2008,10,22,07,59,3.40
2008,10,22,08,00,3.40
2008,10,22,08,01,3.40
2008,10,22,08,02,3.40
2008,10,22,08,03,3.30
2008,10,22,08,04,3.30
2008,10,22,08,05,3.30
2008,10,22,08,06,3.30
2008,10,22,08,07,3.30
2008,10,22,08,08,3.30
2008,10,22,08,09,3.30
2008,10,22,08,10,3.30
2008,10,22,08,11,3.30
2008,10,22,08,12,3.30
2008,10,22,08,13,3.30
2008,10,22,08,14,3.30
2008,10,22,08,15,3.30
2008,10,22,08,16,3.30
2008,10,22,08,17,3.30
2008,10,22,08,18,3.30
2008,10,22,08,19,3.30
2008,10,22,08,20,3.30
2008,10,22,08,21,3.30
2008,10,22,08,22,3.30
2008,10,22,08,23,3.30
2008,10,22,08,24,3.30
2008,10,22,08,25,3.30
2008,10,22,08,26,3.30
2008,10,22,08,27,3.30
2008,10,22,08,28,3.30
2008,10,22,08,29,3.40
2008,10,22,08,30,3.50
2008,10,22,08,31,3.50
2008,10,22,08,32,3.60
2008,10,22,08,33,3.70
2008,10,22,08,34,3.70
2008,10,22,08,35,3.70
2008,10,22,08,36,3.70
2008,10,22,08,37,3.70
2008,10,22,08,38,3.70
2008,10,22,08,39,3.80
2008,10,22,08,40,3.90
2008,10,22,08,41,4.00
2008,10,22,08,42,4.00
2008,10,22,08,43,4.10
2008,10,22,08,44,4.10
2008,10,22,08,45,4.10
2008,10,22,08,46,4.10
2008,10,22,08,47,4.20
2008,10,22,08,48,4.30
2008,10,22,08,49,4.30
2008,10,22,08,50,4.40
2008,10,22,08,51,4.40
2008,10,22,08,52,4.50
2008,10,22,08,53,4.50
2008,10,22,08,54,4.60
2008,10,22,08,55,4.70
2008,10,22,08,56,4.70
2008,10,22,08,57,4.70
2008,10,22,08,58,4.80
2008,10,22,08,59,4.90
2008,10,22,09,00,5.00
2008,10,22,09,01,5.10
2008,10,22,09,02,5.20
2008,10,22,09,03,5.30
2008,10,22,09,04,5.30
2008,10,22,09,05,5.40
2008,10,22,09,06,5.50
2008,10,22,09,07,5.60
2008,10,22,09,08,5.60
2008,10,22,09,09,5.70
2008,10,22,09,10,5.90
2008,10,22,09,11,6.00
2008,10,22,09,12,6.10
2008,10,22,09,13,6.20
2008,10,22,09,14,6.20
2008,10,22,09,15,6.30
2008,10,22,09,16,6.30
2008,10,22,09,17,6.40
2008,10,22,09,18,6.50
2008,10,22,09,19,6.70
2008,10,22,09,20,6.80
2008,10,22,09,21,6.90
2008,10,22,09,22,6.90
2008,10,22,09,23,7.00
2008,10,22,09,24,7.10
2008,10,22,09,25,7.20
2008,10,22,09,26,7.20
2008,10,22,09,27,7.30
2008,10,22,09,28,7.40
2008,10,22,09,29,7.40
2008,10,22,09,30,7.50
2008,10,22,09,31,7.50
2008,10,22,09,32,7.50
2008,10,22,09,33,7.50
2008,10,22,09,34,7.60
2008,10,22,09,35,7.60
2008,10,22,09,36,7.70
2008,10,22,09,37,7.80
2008,10,22,09,38,7.90
2008,10,22,09,39,8.00
2008,10,22,09,40,8.00
2008,10,22,09,41,8.10
2008,10,22,09,42,8.20
2008,10,22,09,43,8.30
2008,10,22,09,44,8.30
2008,10,22,09,45,8.30
2008,10,22,09,46,8.30
2008,10,22,09,47,8.30
2008,10,22,09,48,8.40
2008,10,22,09,49,8.50
2008,10,22,09,50,8.50
2008,10,22,09,51,8.50
2008,10,22,09,52,8.50
2008,10,22,09,53,8.50
2008,10,22,09,54,8.60
2008,10,22,09,55,8.60
2008,10,22,09,56,8.70
2008,10,22,09,57,8.80
2008,10,22,09,58,8.80
2008,10,22,09,59,8.90
2008,10,22,10,00,8.90
2008,10,22,10,01,9.00
2008,10,22,10,02,9.00
2008,10,22,10,03,9.10
2008,10,22,10,04,9.10
2008,10,22,10,05,9.10
2008,10,22,10,06,9.20
2008,10,22,10,07,9.20
2008,10,22,10,08,9.30
2008,10,22,10,09,9.30
2008,10,22,10,10,9.30
2008,10,22,10,11,9.30
2008,10,22,10,12,9.40
2008,10,22,10,13,9.50
2008,10,22,10,14,9.50
2008,10,22,10,15,9.60
2008,10,22,10,16,9.60
2008,10,22,10,17,9.60
2008,10,22,10,18,9.70
2008,10,22,10,19,9.70
2008,10,22,10,20,9.70
2008,10,22,10,21,9.70
2008,10,22,10,22,9.70
2008,10,22,10,23,9.70
2008,10,22,10,24,9.80
2008,10,22,10,25,9.80
2008,10,22,10,26,9.90
2008,10,22,10,27,9.90
2008,10,22,10,28,10.00
2008,10,22,10,29,10.00
2008,10,22,10,30,10.00
2008,10,22,10,31,10.10
2008,10,22,10,32,10.10
2008,10,22,10,33,10.20
2008,10,22,10,34,10.20
2008,10,22,10,35,10.20
2008,10,22,10,36,10.20
2008,10,22,10,37,10.20
2008,10,22,10,38,10.20
2008,10,22,10,39,10.20
2008,10,22,10,40,10.20
2008,10,22,10,41,10.20
2008,10,22,10,42,10.20
2008,10,22,10,43,10.30
2008,10,22,10,44,10.30
2008,10,22,10,45,10.30
2008,10,22,10,46,10.40
2008,10,22,10,47,10.40
2008,10,22,10,48,10.40
2008,10,22,10,49,10.40
2008,10,22,10,50,10.50
2008,10,22,10,51,10.50
2008,10,22,10,52,10.60
2008,10,22,10,53,10.60
2008,10,22,10,54,10.60
2008,10,22,10,55,10.60
2008,10,22,10,56,10.60
2008,10,22,10,57,10.60
2008,10,22,10,58,10.70
2008,10,22,10,59,10.70
2008,10,22,11,00,10.80
2008,10,22,11,01,10.90
2008,10,22,11,02,11.00
2008,10,22,11,03,11.00
2008,10,22,11,04,11.10
2008,10,22,11,05,11.10
2008,10,22,11,06,11.20
2008,10,22,11,07,11.20
2008,10,22,11,08,11.30
2008,10,22,11,09,11.30
2008,10,22,11,10,11.40
2008,10,22,11,11,11.40
2008,10,22,11,12,11.40
2008,10,22,11,13,11.50
2008,10,22,11,14,11.50
2008,10,22,11,15,11.50
2008,10,22,11,16,11.50
2008,10,22,11,17,11.50
2008,10,22,11,18,11.50
2008,10,22,11,19,11.50
2008,10,22,11,20,11.50
2008,10,22,11,21,11.60
2008,10,22,11,22,11.60
2008,10,22,11,23,11.60
2008,10,22,11,24,11.60
2008,10,22,11,25,11.70
2008,10,22,11,26,11.70
2008,10,22,11,27,11.70
2008,10,22,11,28,11.80
2008,10,22,11,29,11.80
2008,10,22,11,30,11.90
2008,10,22,11,31,11.90
2008,10,22,11,32,11.90
2008,10,22,11,33,11.90
2008,10,22,11,34,11.90
2008,10,22,11,35,11.90
2008,10,22,11,36,11.90
2008,10,22,11,37,11.90
2008,10,22,11,38,11.80
2008,10,22,11,39,11.80
2008,10,22,11,40,11.80
2008,10,22,11,41,11.80
2008,10,22,11,42,11.80
2008,10,22,11,43,11.80
2008,10,22,11,44,11.80
2008,10,22,11,45,11.80
2008,10,22,11,46,11.80
2008,10,22,11,47,11.80
2008,10,22,11,48,11.80
2008,10,22,11,49,11.80
2008,10,22,11,50,11.90
2008,10,22,11,51,11.90
2008,10,22,11,52,11.90
2008,10,22,11,53,12.00
2008,10,22,11,54,12.00
2008,10,22,11,55,12.00
2008,10,22,11,56,12.10
2008,10,22,11,57,12.20
2008,10,22,11,58,12.20
2008,10,22,11,59,12.20
2008,10,22,12,00,12.30
2008,10,22,12,01,12.30
2008,10,22,12,02,12.30
2008,10,22,12,03,12.40
2008,10,22,12,04,12.40
2008,10,22,12,05,12.50
2008,10,22,12,06,12.50
2008,10,22,12,07,12.60
2008,10,22,12,08,12.60
2008,10,22,12,09,12.50
2008,10,22,12,10,12.50
2008,10,22,12,11,12.40
2008,10,22,12,12,12.40
2008,10,22,12,13,12.40
2008,10,22,12,14,12.50
2008,10,22,12,15,12.50
2008,10,22,12,16,12.50
2008,10,22,12,17,12.60
2008,10,22,12,18,12.60
2008,10,22,12,19,12.60
2008,10,22,12,20,12.60
2008,10,22,12,21,12.60
2008,10,22,12,22,12.60
2008,10,22,12,23,12.60
2008,10,22,12,24,12.70
2008,10,22,12,25,12.70
2008,10,22,12,26,12.70
2008,10,22,12,27,12.80
2008,10,22,12,28,12.70
2008,10,22,12,29,12.70
2008,10,22,12,30,12.60
2008,10,22,12,31,12.60
2008,10,22,12,32,12.70
2008,10,22,12,33,12.70
2008,10,22,12,34,12.80
2008,10,22,12,35,12.80
2008,10,22,12,36,12.90
2008,10,22,12,37,12.90
2008,10,22,12,38,12.90
2008,10,22,12,39,12.90
2008,10,22,12,40,12.90
2008,10,22,12,41,13.00
2008,10,22,12,42,13.00
2008,10,22,12,43,13.10
2008,10,22,12,44,13.10
2008,10,22,12,45,13.10
2008,10,22,12,46,13.20
2008,10,22,12,47,13.20
2008,10,22,12,48,13.20
2008,10,22,12,49,13.20
2008,10,22,12,50,13.20
2008,10,22,12,51,13.20
2008,10,22,12,52,13.20
2008,10,22,12,53,13.20
2008,10,22,12,54,13.20
2008,10,22,12,55,13.20
2008,10,22,12,56,13.20
2008,10,22,12,57,13.20
2008,10,22,12,58,13.30
2008,10,22,12,59,13.30
2008,10,22,13,00,13.30
2008,10,22,13,01,13.30
2008,10,22,13,02,13.30
2008,10,22,13,03,13.30
2008,10,22,13,04,13.30
2008,10,22,13,05,13.20
2008,10,22,13,06,13.20
2008,10,22,13,07,13.20
2008,10,22,13,08,13.20
2008,10,22,13,09,13.20
2008,10,22,13,10,13.20
2008,10,22,13,11,13.20
2008,10,22,13,12,13.20
2008,10,22,13,13,13.30
2008,10,22,13,14,13.30
2008,10,22,13,15,13.40
2008,10,22,13,16,13.50
2008,10,22,13,17,13.50
2008,10,22,13,18,13.60
2008,10,22,13,19,13.70
2008,10,22,13,20,13.70
2008,10,22,13,21,13.60
2008,10,22,13,22,13.60
2008,10,22,13,23,13.60
2008,10,22,13,24,13.60
2008,10,22,13,25,13.60
2008,10,22,13,26,13.70
2008,10,22,13,27,13.70
2008,10,22,13,28,13.80
2008,10,22,13,29,13.90
2008,10,22,13,30,13.90
2008,10,22,13,31,13.90
2008,10,22,13,32,13.90
2008,10,22,13,33,13.80
2008,10,22,13,34,13.80
2008,10,22,13,35,13.80
2008,10,22,13,36,13.80
2008,10,22,13,37,13.80
2008,10,22,13,38,13.80
2008,10,22,13,39,13.70
2008,10,22,13,40,13.80
2008,10,22,13,41,13.80
2008,10,22,13,42,13.80
2008,10,22,13,43,13.90
2008,10,22,13,44,14.00
2008,10,22,13,45,14.10
2008,10,22,13,46,14.20
2008,10,22,13,47,14.20
2008,10,22,13,48,14.30
2008,10,22,13,49,14.40
2008,10,22,13,50,14.40
2008,10,22,13,51,14.40
2008,10,22,13,52,14.40
2008,10,22,13,53,14.40
2008,10,22,13,54,14.40
2008,10,22,13,55,14.40
2008,10,22,13,56,14.30
2008,10,22,13,57,14.30
2008,10,22,13,58,14.20
2008,10,22,13,59,14.20
2008,10,22,14,00,14.20
2008,10,22,14,01,14.20
2008,10,22,14,02,14.20
2008,10,22,14,03,14.20
2008,10,22,14,04,14.30
2008,10,22,14,05,14.30
2008,10,22,14,06,14.40
2008,10,22,14,07,14.50
2008,10,22,14,08,14.50
2008,10,22,14,09,14.60
2008,10,22,14,10,14.60
2008,10,22,14,11,14.60
2008,10,22,14,12,14.60
2008,10,22,14,13,14.60
2008,10,22,14,14,14.60
2008,10,22,14,15,14.60
2008,10,22,14,16,14.70
2008,10,22,14,17,14.70
2008,10,22,14,18,14.70
2008,10,22,14,19,14.70
2008,10,22,14,20,14.70
2008,10,22,14,21,14.60
2008,10,22,14,22,14.60
2008,10,22,14,23,14.60
2008,10,22,14,24,14.60
2008,10,22,14,25,14.60
2008,10,22,14,26,14.60
2008,10,22,14,27,14.60
2008,10,22,14,28,14.60
2008,10,22,14,29,14.60
2008,10,22,14,30,14.60
2008,10,22,14,31,14.50
2008,10,22,14,32,14.50
2008,10,22,14,33,14.40
2008,10,22,14,34,14.30
2008,10,22,14,35,14.30
2008,10,22,14,36,14.20
2008,10,22,14,37,14.20
2008,10,22,14,38,14.30
2008,10,22,14,39,14.30
2008,10,22,14,40,14.30
2008,10,22,14,41,14.20
2008,10,22,14,42,14.30
2008,10,22,14,43,14.30
2008,10,22,14,44,14.30
2008,10,22,14,45,14.30
2008,10,22,14,46,14.40
2008,10,22,14,47,14.40
2008,10,22,14,48,14.40
2008,10,22,14,49,14.50
2008,10,22,14,50,14.50
2008,10,22,14,51,14.50
2008,10,22,14,52,14.50
2008,10,22,14,53,14.50
2008,10,22,14,54,14.50
2008,10,22,14,55,14.60
2008,10,22,14,56,14.60
2008,10,22,14,57,14.60
2008,10,22,14,58,14.60
2008,10,22,14,59,14.60
2008,10,22,15,00,14.60
2008,10,22,15,01,14.60
2008,10,22,15,02,14.70
2008,10,22,15,03,14.70
2008,10,22,15,04,14.70
2008,10,22,15,05,14.70
2008,10,22,15,06,14.70
2008,10,22,15,07,14.70
2008,10,22,15,08,14.70
2008,10,22,15,09,14.70
2008,10,22,15,10,14.60
2008,10,22,15,11,14.60
2008,10,22,15,12,14.60
2008,10,22,15,13,14.60
2008,10,22,15,14,14.70
2008,10,22,15,15,14.60
2008,10,22,15,16,14.60
2008,10,22,15,17,14.60
2008,10,22,15,18,14.60
2008,10,22,15,19,14.60
2008,10,22,15,20,14.70
2008,10,22,15,21,14.70
2008,10,22,15,22,14.70
2008,10,22,15,23,14.70
2008,10,22,15,24,14.70
2008,10,22,15,25,14.70
2008,10,22,15,26,14.70
2008,10,22,15,27,14.70
2008,10,22,15,28,14.70
2008,10,22,15,29,14.70
2008,10,22,15,30,14.70
2008,10,22,15,31,14.70
2008,10,22,15,32,14.70
2008,10,22,15,33,14.70
2008,10,22,15,34,14.70
2008,10,22,15,35,14.70
2008,10,22,15,36,14.70
2008,10,22,15,37,14.70
2008,10,22,15,38,14.70
2008,10,22,15,39,14.70
2008,10,22,15,40,14.70
2008,10,22,15,41,14.70
2008,10,22,15,42,14.70
2008,10,22,15,43,14.70
2008,10,22,15,44,14.70
2008,10,22,15,45,14.70
2008,10,22,15,46,14.70
2008,10,22,15,47,14.70
2008,10,22,15,48,14.70
2008,10,22,15,49,14.70
2008,10,22,15,50,14.70
2008,10,22,15,51,14.60
2008,10,22,15,52,14.60
2008,10,22,15,53,14.50
2008,10,22,15,54,14.50
2008,10,22,15,55,14.50
2008,10,22,15,56,14.40
2008,10,22,15,57,14.40
2008,10,22,15,58,14.40
2008,10,22,15,59,14.40
2008,10,22,16,00,14.40
2008,10,22,16,01,14.40
2008,10,22,16,02,14.40
2008,10,22,16,03,14.40
2008,10,22,16,04,14.40
2008,10,22,16,05,14.40
2008,10,22,16,06,14.40
2008,10,22,16,07,14.40
2008,10,22,16,08,14.40
2008,10,22,16,09,14.40
2008,10,22,16,10,14.40
2008,10,22,16,11,14.40
2008,10,22,16,12,14.40
2008,10,22,16,13,14.40
2008,10,22,16,14,14.40
2008,10,22,16,15,14.40
2008,10,22,16,16,14.40
2008,10,22,16,17,14.40
2008,10,22,16,18,14.40
2008,10,22,16,19,14.40
2008,10,22,16,20,14.40
2008,10,22,16,21,14.40
2008,10,22,16,22,14.40
2008,10,22,16,23,14.30
2008,10,22,16,24,14.30
2008,10,22,16,25,14.30
2008,10,22,16,26,14.30
2008,10,22,16,27,14.30
2008,10,22,16,28,14.30
2008,10,22,16,29,14.20
2008,10,22,16,30,14.20
2008,10,22,16,31,14.20
2008,10,22,16,32,14.20
2008,10,22,16,33,14.20
2008,10,22,16,34,14.20
2008,10,22,16,35,14.20
2008,10,22,16,36,14.10
2008,10,22,16,37,14.10
2008,10,22,16,38,14.10
2008,10,22,16,39,14.10
2008,10,22,16,40,14.10
2008,10,22,16,41,14.00
2008,10,22,16,42,14.00
2008,10,22,16,43,14.00
2008,10,22,16,44,14.00
2008,10,22,16,45,13.90
2008,10,22,16,46,13.90
2008,10,22,16,47,13.90
2008,10,22,16,48,13.80
2008,10,22,16,49,13.80
2008,10,22,16,50,13.80
2008,10,22,16,51,13.80
2008,10,22,16,52,13.80
2008,10,22,16,53,13.80
2008,10,22,16,54,13.80
2008,10,22,16,55,13.80
2008,10,22,16,56,13.80
2008,10,22,16,57,13.70
2008,10,22,16,58,13.70
2008,10,22,16,59,13.70
2008,10,22,17,00,13.60
2008,10,22,17,01,13.60
2008,10,22,17,02,13.60
2008,10,22,17,03,13.60
2008,10,22,17,04,13.50
2008,10,22,17,05,13.50
2008,10,22,17,06,13.40
2008,10,22,17,07,13.40
2008,10,22,17,08,13.40
2008,10,22,17,09,13.40
2008,10,22,17,10,13.30
2008,10,22,17,11,13.30
2008,10,22,17,12,13.30
2008,10,22,17,13,13.30
2008,10,22,17,14,13.30
2008,10,22,17,15,13.20
2008,10,22,17,16,13.20
2008,10,22,17,17,13.20
2008,10,22,17,18,13.10
2008,10,22,17,19,13.10
2008,10,22,17,20,13.00
2008,10,22,17,21,12.90
2008,10,22,17,22,12.80
2008,10,22,17,23,12.80
2008,10,22,17,24,12.80
2008,10,22,17,25,12.70
2008,10,22,17,26,12.60
2008,10,22,17,27,12.50
2008,10,22,17,28,12.30
2008,10,22,17,29,12.30
2008,10,22,17,30,12.20
2008,10,22,17,31,12.10
2008,10,22,17,32,12.10
2008,10,22,17,33,12.00
2008,10,22,17,34,11.90
2008,10,22,17,35,11.80
2008,10,22,17,36,11.70
2008,10,22,17,37,11.50
2008,10,22,17,38,11.40
2008,10,22,17,39,11.30
2008,10,22,17,40,11.20
2008,10,22,17,41,11.20
2008,10,22,17,42,11.10
2008,10,22,17,43,11.00
2008,10,22,17,44,10.90
2008,10,22,17,45,10.90
2008,10,22,17,46,10.80